Hourly Weather San Miguel de Tucumán

Today, 26 October, Monday

Time Temperature Precipitation Wind Pressure Humidity
00:00 +22°C° 0.2 mm 4 mps 719 mmHg 78%
01:00 +21°C° 0.2 mm 3 mps 719 mmHg 77%
02:00 +20°C° 0.2 mm 3 mps 719 mmHg 76%
03:00 +20°C° 0 mm 3 mps 720 mmHg 75%
04:00 +19°C° 0 mm 2 mps 720 mmHg 74%
05:00 +19°C° 0 mm 2 mps 721 mmHg 73%
06:00 +21°C° 0 mm 1 mps 721 mmHg 63%
07:00 +23°C° 0 mm 1 mps 722 mmHg 53%
08:00 +24°C° 0 mm 1 mps 722 mmHg 43%
09:00 +26°C° 0 mm 1 mps 722 mmHg 37%
10:00 +27°C° 0 mm 2 mps 722 mmHg 31%
11:00 +29°C° 0 mm 2 mps 721 mmHg 25%
12:00 +30°C° 0 mm 2 mps 720 mmHg 23%
13:00 +31°C° 0 mm 2 mps 719 mmHg 22%
14:00 +33°C° 0 mm 3 mps 718 mmHg 20%
15:00 +31°C° 0 mm 3 mps 718 mmHg 21%
16:00 +31°C° 0 mm 3 mps 717 mmHg 21%
17:00 +31°C° 0 mm 3 mps 717 mmHg 22%
18:00 +28°C° 0 mm 3 mps 717 mmHg 26%
19:00 +26°C° 0 mm 2 mps 717 mmHg 29%
20:00 +24°C° 0 mm 2 mps 717 mmHg 33%
21:00 +23°C° 0 mm 2 mps 717 mmHg 36%
22:00 +23°C° 0 mm 2 mps 717 mmHg 38%
23:00 +21°C° 0 mm 2 mps 717 mmHg 40%

Tomorrow, 27 October, Tuesday

Time Temperature Precipitation Wind Pressure Humidity
00:00 +21°C° 0 mm 1 mps 716 mmHg 42%
01:00 +21°C° 0 mm 1 mps 716 mmHg 44%
02:00 +20°C° 0 mm 1 mps 715 mmHg 45%
03:00 +20°C° 0 mm 1 mps 715 mmHg 47%
04:00 +19°C° 0 mm 1 mps 715 mmHg 49%
05:00 +19°C° 0 mm 1 mps 715 mmHg 51%
06:00 +21°C° 0 mm 1 mps 715 mmHg 47%
07:00 +23°C° 0 mm 1 mps 715 mmHg 42%
08:00 +25°C° 0 mm 1 mps 715 mmHg 38%
09:00 +27°C° 0 mm 2 mps 714 mmHg 35%
10:00 +30°C° 0 mm 2 mps 714 mmHg 31%
11:00 +32°C° 0 mm 2 mps 713 mmHg 28%
12:00 +35°C° 0 mm 2 mps 712 mmHg 26%
13:00 +36°C° 0 mm 3 mps 711 mmHg 25%
14:00 +38°C° 0 mm 3 mps 710 mmHg 23%
15:00 +37°C° 0 mm 3 mps 709 mmHg 24%
16:00 +37°C° 0 mm 4 mps 709 mmHg 25%
17:00 +37°C° 0 mm 4 mps 708 mmHg 26%
18:00 +34°C° 0 mm 4 mps 709 mmHg 32%
19:00 +31°C° 0 mm 3 mps 709 mmHg 38%
20:00 +29°C° 0 mm 3 mps 709 mmHg 44%
21:00 +28°C° 0 mm 2 mps 710 mmHg 47%
22:00 +27°C° 0 mm 2 mps 710 mmHg 49%
23:00 +26°C° 0 mm 1 mps 710 mmHg 52%

Day after tomorrow, 28 October, Wednesday

Time Temperature Precipitation Wind Pressure Humidity
00:00 +25°C° 0 mm 1 mps 710 mmHg 53%
01:00 +25°C° 0 mm 1 mps 709 mmHg 53%
02:00 +24°C° 0 mm 1 mps 709 mmHg 54%
03:00 +24°C° 0 mm 1 mps 710 mmHg 55%
04:00 +23°C° 0 mm 2 mps 710 mmHg 55%
05:00 +23°C° 0 mm 2 mps 711 mmHg 56%
06:00 +23°C° 0 mm 4 mps 712 mmHg 53%
07:00 +25°C° 0 mm 5 mps 713 mmHg 50%
08:00 +24°C° 0 mm 6 mps 714 mmHg 46%
09:00 +24°C° 0 mm 6 mps 715 mmHg 47%
10:00 +26°C° 0 mm 6 mps 715 mmHg 47%
11:00 +26°C° 0 mm 6 mps 715 mmHg 48%
12:00 +22°C° 0.1 mm 6 mps 716 mmHg 55%
13:00 +20°C° 0.1 mm 6 mps 716 mmHg 62%
14:00 +17°C° 0.1 mm 6 mps 717 mmHg 69%
15:00 +16°C° 0.6 mm 6 mps 717 mmHg 73%
16:00 +14°C° 0.6 mm 5 mps 718 mmHg 77%
17:00 +13°C° 0.6 mm 5 mps 718 mmHg 81%
18:00 +13°C° 0.1 mm 4 mps 719 mmHg 79%
19:00 +13°C° 0.1 mm 3 mps 721 mmHg 77%
20:00 +13°C° 0.1 mm 3 mps 722 mmHg 74%
21:00 +13°C° 0 mm 2 mps 722 mmHg 75%
22:00 +13°C° 0 mm 2 mps 723 mmHg 75%
23:00 +12°C° 0 mm 1 mps 723 mmHg 76%

29 October, Thursday

Time Temperature Precipitation Wind Pressure Humidity
00:00 +12°C° 0 mm 1 mps 723 mmHg 74%
01:00 +12°C° 0 mm 1 mps 723 mmHg 72%
02:00 +12°C° 0 mm 1 mps 723 mmHg 70%
03:00 +12°C° 0 mm 1 mps 723 mmHg 67%
04:00 +12°C° 0 mm 1 mps 723 mmHg 65%
05:00 +12°C° 0 mm 1 mps 724 mmHg 62%
06:00 +14°C° 0 mm 1 mps 724 mmHg 54%
07:00 +16°C° 0 mm 1 mps 725 mmHg 46%
08:00 +19°C° 0 mm 1 mps 725 mmHg 38%
09:00 +21°C° 0 mm 1 mps 725 mmHg 33%
10:00 +23°C° 0 mm 2 mps 725 mmHg 27%
11:00 +24°C° 0 mm 3 mps 725 mmHg 22%
12:00 +25°C° 0 mm 3 mps 724 mmHg 20%
13:00 +26°C° 0 mm 3 mps 723 mmHg 17%
14:00 +27°C° 0 mm 3 mps 722 mmHg 15%
15:00 +26°C° 0 mm 3 mps 722 mmHg 15%
16:00 +26°C° 0 mm 3 mps 721 mmHg 15%
17:00 +26°C° 0 mm 2 mps 721 mmHg 15%
18:00 +23°C° 0 mm 2 mps 721 mmHg 19%
19:00 +21°C° 0 mm 1 mps 722 mmHg 23%
20:00 +18°C° 0 mm 1 mps 722 mmHg 27%
21:00 +16°C° 0 mm 1 mps 722 mmHg 28%
22:00 +16°C° 0 mm 1 mps 723 mmHg 29%
23:00 +15°C° 0 mm 1 mps 723 mmHg 30%

30 October, Friday

Time Temperature Precipitation Wind Pressure Humidity
00:00 +13°C° 0 mm 0 mps 723 mmHg 31%
01:00 +13°C° 0 mm 0 mps 723 mmHg 33%
02:00 +12°C° 0 mm 0 mps 723 mmHg 34%
03:00 +12°C° 0 mm 0 mps 723 mmHg 35%
04:00 +11°C° 0 mm 0 mps 724 mmHg 36%
05:00 +12°C° 0 mm 1 mps 724 mmHg 37%
06:00 +14°C° 0 mm 1 mps 724 mmHg 34%
07:00 +18°C° 0 mm 1 mps 725 mmHg 30%
08:00 +20°C° 0 mm 1 mps 726 mmHg 26%
09:00 +22°C° 0 mm 1 mps 725 mmHg 24%
10:00 +24°C° 0 mm 1 mps 725 mmHg 22%
11:00 +26°C° 0 mm 2 mps 725 mmHg 20%
12:00 +27°C° 0 mm 2 mps 724 mmHg 20%
13:00 +28°C° 0 mm 3 mps 723 mmHg 20%
14:00 +29°C° 0 mm 3 mps 722 mmHg 19%
15:00 +28°C° 0 mm 3 mps 722 mmHg 20%
16:00 +28°C° 0 mm 3 mps 721 mmHg 21%
17:00 +28°C° 0 mm 4 mps 721 mmHg 22%
18:00 +25°C° 0 mm 3 mps 722 mmHg 26%
19:00 +23°C° 0 mm 2 mps 722 mmHg 30%
20:00 +20°C° 0 mm 1 mps 723 mmHg 34%
21:00 +19°C° 0 mm 1 mps 723 mmHg 36%
22:00 +18°C° 0 mm 1 mps 724 mmHg 38%
23:00 +18°C° 0 mm 1 mps 724 mmHg 40%

31 October, Saturday

Time Temperature Precipitation Wind Pressure Humidity
00:00 +16°C° 0 mm 1 mps 724 mmHg 43%
01:00 +15°C° 0 mm 1 mps 724 mmHg 45%
02:00 +15°C° 0 mm 1 mps 723 mmHg 48%
Show more